Regional Weather Roundup
Issued by NWS

Home | Current Version | Previous Version | Graphics & Text | Print | Product List | Glossary On
Versions: 1 2 3 4 5 6 7 8 9 10 11 12 13 14 15 16 17 18 19 20 21 22 23 24 25 26 27 28 29 30 31 32 33 34 35 36 37 38 39 40 41 42 43 44 45 46 47 48 49 50
000
ASUS43 KMPX 251810
RWRMN
WEATHER ROUNDUP FOR MINNESOTA
NATIONAL WEATHER SERVICE TWIN CITIES/CHANHASSEN MN
100 PM CDT TUE APR 25 2017


NOTE: "FAIR" INDICATES FEW OR NO CLOUDS BELOW 12,000 FEET WITH NO
SIGNIFICANT WEATHER AND/OR OBSTRUCTIONS TO VISIBILITY. N/A MEANS
CURRENT SKY AND/OR WEATHER CONDITIONS ARE NOT AVAILABLE.

MNZ060>063-068>070-251900-
   Twin Cities Metro

CITY           SKY/WX    TMP DP  RH WIND       PRES   REMARKS
TWIN CITIES    CLOUDY    56  46  69 W6        29.55S
6HR MIN TEMP:  52; 6HR MAX TEMP:  59;

ST PAUL        CLOUDY    60  47  61 W6        29.54F
CRYSTAL        CLOUDY    58  45  62 SW5       29.53F
BLAINE         CLOUDY    63  48  59 W5        29.54F
LAKEVILLE      CLOUDY    54  46  76 W5        29.55F
EDEN PRAIRIE   CLOUDY    55  47  74 VRB3      29.54F
6HR MIN TEMP:  49; 6HR MAX TEMP:  55;

SOUTH ST PAUL  CLOUDY    60  46  59 W8        29.53F
LAKE ELMO      FAIR      63  45  51 SW5       29.55S
$$
MNZ001>005-007-008-013>017-022>024-027-028-251900-
   Northwest Minnesota

CITY           SKY/WX    TMP DP  RH WIND       PRES   REMARKS
BEMIDJI        CLOUDY    35  33  93 N12       29.71F WCI  27
HALLOCK        CLOUDY    34  27  75 N22       29.87R WCI  22
ROSEAU         CLOUDY    34  27  75 NE21      29.82F WCI  22
WARROAD        CLOUDY    32  27  80 N18       29.84F WCI  20
THIEF RVR FALL CLOUDY    33  28  81 N18       29.80  WCI  22
CROOKSTON      CLOUDY    36  28  75 NE15      29.82R
FOSSTON        CLOUDY    36  36 100 N17       29.75R
DETROIT LAKES  CLOUDY    39  36  87 N8        29.68F
MOORHEAD       CLOUDY    37  30  75 N23G29    29.74F
PARK RAPIDS    CLOUDY    40  32  73 N14       29.66S
MAHNOMEN       CLOUDY    37  33  87 NE16G22   29.72S
$$
MNZ006-009>011-018-025>026-251900-
   North Central Minnesota

CITY           SKY/WX    TMP DP  RH WIND       PRES   REMARKS
BAUDETTE       CLOUDY    32  26  78 N18G25    29.79F WCI  20
FLAG ISLAND    CLOUDY    28  25  86 N24       29.86F WCI  14
INTL FALLS     CLOUDY    32  27  81 N17G24    29.78F WCI  21
6HR MIN TEMP:  32; 6HR MAX TEMP:  35; 6HR PCP: TRACE;

WASKISH        CLOUDY    34  34 100 N9G18     29.76S WCI  26
BIG FORK       CLOUDY    36  34  93 N10G16    29.72S FOG
LONGVILLE      CLOUDY    39  36  87 N9        29.67S
GRAND RAPIDS   CLOUDY    42  37  82 N14       29.68R
CRANE LAKE     CLOUDY    36  34  93 N10       29.76R
ORR            CLOUDY    36  32  87 N5        29.70R
COOK           CLOUDY    39  36  87 N12G18    29.70S
WALKER         CLOUDY    36  33  89 N10       29.69S
$$
MNZ012-019>021-037-251900-
   Northeast Minnesota

CITY           SKY/WX    TMP DP  RH WIND       PRES   REMARKS
DULUTH         CLOUDY    53  41  63 SE9       29.61S
6HR MIN TEMP:  41; 6HR MAX TEMP:  57; 6HR PCP:  0.06;

ELY            CLOUDY    45  39  81 N7        29.68R
HIBBING        CLOUDY    48  40  73 N13       29.66R
EVELETH        PTSUNNY   47  39  72 NE12G17   29.66S
DULUTH HARBOR  LGT RAIN  43  39  87 E12       29.64S
TWO HARBORS    CLOUDY    57  43  58 NE6       29.61R
SILVER BAY     CLOUDY    54  39  58 NE9       29.62F
GRAND MARAIS     N/A     40  38  93 NE6       29.66R
G MARAIS ARPRT LGT RAIN  45  37  76 N5        29.67R
$$
MNZ029>031-032-039>041-046>048-054>057-064-251900-
   West Central Minnesota

CITY           SKY/WX    TMP DP  RH WIND       PRES   REMARKS
FERGUS FALLS   CLOUDY    39  37  93 N12       29.66F
WHEATON        CLOUDY    37  34  87 NW22      29.69F
MORRIS         CLOUDY    45  39  81 NW16      29.61S
ALEXANDRIA     CLOUDY    46  39  76 NE17      29.60F
ELBOW LAKE     CLOUDY    42  38  86 N15       29.63F
WADENA         CLOUDY    43  37  81 NE18      29.62F
GLENWOOD       PTSUNNY   48  41  76 N16       29.59F
APPLETON       CLOUDY    43  37  81 NW17G23   29.62S
BENSON         CLOUDY    48  37  66 N12G18    29.61F
ORTONVILLE     CLOUDY    37  34  87 NW20G28   29.65F FOG
MADISON        CLOUDY    41  39  93 NW18G25   29.64F
WILLMAR        PTSUNNY   52  45  76 N10G17    29.58F
$$
MNZ033>034-036-042>043-049>051-058-059-251900-
   Central Minnesota

CITY           SKY/WX    TMP DP  RH WIND       PRES   REMARKS
ST CLOUD       PTSUNNY   58  44  60 NE8       29.55F
6HR MIN TEMP:  46; 6HR MAX TEMP:  59;

SAUK CENTRE    FAIR      49  40  71 N15       29.57F
PAYNESVILLE    CLOUDY    55  42  62 N8        29.56F
AITKIN         CLOUDY    57  37  47 N10G17    29.59S
PINE RIVER     CLOUDY    41  37  87 N18       29.68F
BRAINERD       CLOUDY    52  40  63 N14       29.61F
STAPLES        CLOUDY    45  37  76 N14G21    29.61F
LONG PRAIRIE   PTSUNNY   46  37  71 NW14G21   29.59F
LITTLE FALLS   CLOUDY    54  41  62 N9        29.57F
LITCHFIELD     CLOUDY    57  46  67 N8        29.56S
BUFFALO        CLOUDY    58  44  60 NW5       29.55F
MAPLE LAKE     CLOUDY    60  47  62 NW6       29.55F
HUTCHINSON     CLOUDY    56  47  72 NW6       29.56F
$$
MNZ037-044-045-052-053-251900-
   East Central Minnesota

CITY           SKY/WX    TMP DP  RH WIND       PRES   REMARKS
PRINCETON      CLOUDY    63  46  55 N7        29.54F
MORA           CLOUDY    59  41  51 NE5       29.57S
CAMBRIDGE      CLOUDY    64  46  52 N6        29.53S
RUSH CITY      CLOUDY    64  43  46 NE5       29.54S
MOOSE LAKE     MOSUNNY   57  39  51 NE9       29.57F
HINCKLEY       FAIR      63  43  48 N9        29.56S
CLOQUET        MOSUNNY   55  39  54 E8        29.60S
MCGREGOR       PTSUNNY   54  43  66 N13       29.61S
$$
MNZ071>073-080-081-089-090-097-098-251900-
   Southwest Minnesota

CITY           SKY/WX    TMP DP  RH WIND       PRES   REMARKS
MONTEVIDEO     CLOUDY    43  43 100 N13G20    29.61S
GRANITE FALLS  CLOUDY    43  40  89 W15       29.63R
CANBY          CLOUDY    39  37  92 NW20      29.64F FOG
MARSHALL       CLOUDY    40  37  89 NW15      29.62F
REDWOOD FALLS  CLOUDY    44  39  82 NW12      29.59F
OLIVIA         CLOUDY    46  41  81 NW9       29.57F
PIPESTONE      CLOUDY    39  34  81 N13       29.58F
WINDOM         LGT RAIN  39  37  93 NW14      29.59F
WORTHINGTON    LGT RAIN  38  37  97 N18G25    29.55F
JACKSON        LGT SNOW  37  37 100 N14G20    29.54F
TRACY          CLOUDY    40  38  93 NW13      29.62S
SLAYTON        CLOUDY    38  37  94 N16       29.59F
$$
MNZ065>067-074>077-082>085-091>093-251900-
   South Central Minnesota

CITY           SKY/WX    TMP DP  RH WIND       PRES   REMARKS
MANKATO        LGT RAIN  44  42  93 SW6       29.60R
NEW ULM        CLOUDY    45  41  87 W6        29.59R
ST JAMES       RAIN      41  39  93 NW8       29.61F
FAIRMONT       LGT RAIN  41  40  96 N20       29.55F
GLENCOE        CLOUDY    54  49  85 CALM      29.55F
FARIBAULT      LGT RAIN  50  45  81 SW8       29.60R
OWATONNA       RAIN      48  43  81 W7        29.59R
WASECA         LGT RAIN  45  41  87 W6        29.60F
ALBERT LEA     LGT RAIN  45  43  93 N7        29.57F
$$
MNZ078>079-086>088-094>096-251900-
   Southeast Minnesota

CITY           SKY/WX    TMP DP  RH WIND       PRES   REMARKS
ROCHESTER      CLOUDY    63  44  50 S13       29.56R
6HR MIN TEMP:  54; 6HR MAX TEMP:  65;

RED WING       CLOUDY    70  39  32 SE6       29.51F
STANTON        CLOUDY    57  46  65 W10       29.55R
DODGE CENTER   LGT RAIN  54  45  71 W17       29.58R
WINONA         PTSUNNY   70  45  40 S5        29.53S
AUSTIN         RAIN      52  46  82 NW6       29.58R
PRESTON        CLOUDY    63  44  50 S9        29.55S
$$
ABBREVIATIONS USED IN REMARKS
   TC - TEMPERATURES IN CELSIUS
  WCI - WIND CHILL INDEX
   HX - HEAT INDEX
  VSB - VISIBILITY
$$



USA.gov is the U.S. government's official web portal to all federal, state and local government web resources and services.